Location: Auckland
(36.8670°S, 174.7670°E)
Time: 04:03:59
(UTC+12:00)

Courier 1B Rocket - Pass Details

Date: 21 July 2019
Orbit: 920 x 1202 km, 28.3° (Epoch: 22 August)

Event Time Altitude Azimuth Distance (km) Brightness Sun altitude
Rises 04:07:29 0° 313° (NW) 4,087 - -39.8°
Reaches altitude 10° 04:10:48 10° 324° (NW) 3,111 - -39.2°
Maximum altitude 04:17:08 28° 19° (NNE) 2,026 - -37.9°
Exits shadow 04:17:19 28° 21° (NNE) 2,026 6.7 -37.9°
Drops below altitude 10° 04:23:14 10° 74° (ENE) 2,993 8.2 -36.7°
Sets 04:26:21 0° 85° (E) 3,907 9.1 -36.0°
